QPF
0.00 0.00 0.00 0.00 0.00 0.00 0.00 0.00 0.00 0.00 0.00 0.00 0.00 0.00 0.00 0.00 0.00 0.00 0.00 0.00 0.00 0.00 0.00 0.00 0.00 0.00 0.00 0.00 0.00 0.00 0.00 0.00 0.00 0.00 0.00 0.00 0.00 0.00 0.00 0.00 0.00 0.00 0.00 0.00 0.00
0.00 0.00 0.00 0.00 0.00 0.00 0.00 0.00 0.00 0.00 0.00 0.00 0.00 0.00 0.00 0.00 0.00 0.00 0.00 0.00 0.00 0.00 0.00 0.00 0.00 0.00 0.00 0.00 0.00 0.00 0.00 0.00 0.00 0.00 0.00 0.00 0.00 0.00 0.00 0.00 0.00 0.00 0.00 0.00 0.00
0.00 0.00 0.00 0.00 0.00 0.00 0.00 0.00 0.00 0.00 0.00 0.00 0.00 0.00 0.00 0.00 0.00 0.00 0.00 0.00 0.00 0.00 0.00 0.00 0.00 0.00 0.00 0.00 0.00 0.00 0.00 0.00 0.00 0.00 0.00 0.00 0.00 0.00 0.00 0.00 0.00 0.00 0.00 0.00 0.00
0.00 0.00 0.00 0.00 0.00 0.00 0.00 0.00 0.00 0.00 0.00 0.00 0.00 0.00 0.00 0.00 0.00 0.00 0.00 0.00 0.00 0.00 0.00 0.00 0.00 0.00 0.00 0.00 0.00 0.00 0.00 0.00 0.00 0.00 0.00 0.00 0.00 0.00 0.00 0.00 0.00 0.00 0.00 0.00 0.00
0.00 0.00 0.00 0.00 0.00 0.00 0.00 0.00 0.00 0.00 0.00 0.00 0.00 0.00 0.00 0.00 0.00 0.00 0.00 0.00 0.00 0.00 0.00 0.00 0.00 0.00 0.00 0.00 0.00 0.00 0.00 0.00 0.00 0.00 0.00 0.00 0.00 0.00 0.00 0.00 0.00 0.00 0.00 0.00 0.00
0.00 0.00 0.00 0.00 0.00 0.00 0.00 0.00 0.00 0.00 0.00 0.00 0.00 0.00 0.00 0.00 0.00 0.00 0.00 0.00 0.00 0.00 0.00 0.00 0.00 0.00 0.00 0.00 0.00 0.00 0.00 0.00 0.00 0.00 0.00 0.00 0.00 0.00 0.00 0.00 0.00 0.00 0.00 0.01 0.00
0.00 0.00 0.00 0.00 0.00 0.00 0.00 0.00 0.00 0.00 0.00 0.00 0.00 0.00 0.00 0.00 0.00 0.00 0.00 0.00 0.00 0.00 0.00 0.00 0.00 0.00 0.00 0.00 0.00 0.00 0.00 0.00 0.00 0.00 0.00 0.00 0.00 0.00 0.00 0.00 0.00 0.00 0.00 0.00 0.00
0.00 0.00 0.00 0.00 0.00 0.00 0.00 0.00 0.00 0.00 0.00 0.00 0.00 0.00 0.00 0.00 0.00 0.00 0.00 0.00 0.00 0.00 0.00 0.00 0.00 0.00 0.00 0.00 0.00 0.00 0.00 0.00 0.00 0.00 0.00 0.00 0.00 0.00 0.00 0.00 0.00 0.00 0.00 0.00 0.00
0.00 0.00 0.00 0.00 0.00 0.00 0.00 0.00 0.00 0.00 0.00 0.00 0.00 0.00 0.00 0.00 0.00 0.00 0.00 0.00 0.00 0.00 0.00 0.00 0.00 0.00 0.00 0.00 0.00 0.00 0.00 0.00 0.00 0.00 0.00 0.00 0.00 0.00 0.00 0.00 0.00 0.00 0.00 0.00 0.00
0.00 0.00 0.00 0.00 0.00 0.00 0.00 0.00 0.00 0.00 0.00 0.00 0.00 0.00 0.00 0.00 0.00 0.00 0.00 0.00 0.00 0.00 0.00 0.00 0.00 0.00 0.00 0.00 0.00 0.00 0.00 0.00 0.00 0.00 0.00 0.00 0.00 0.00 0.00 0.00 0.00 0.00 0.00 0.00 0.00
0.00 0.00 0.00 0.00 0.00 0.00 0.00 0.00 0.00 0.00 0.00 0.00 0.00 0.00 0.00 0.00 0.00 0.00 0.00 0.00 0.00 0.00 0.00 0.00 0.00 0.00 0.00 0.00 0.00 0.00 0.00 0.00 0.00 0.00 0.00 0.00 0.00 0.00 0.00 0.00 0.00 0.00 0.00 0.00 0.00
0.00 0.00 0.00 0.00 0.00 0.00 0.00 0.00 0.00 0.00 0.00 0.00 0.00 0.00 0.00 0.00 0.00 0.00 0.00 0.00 0.00 0.00 0.00 0.00 0.00 0.00 0.00 0.00 0.00 0.00 0.00 0.00 0.00 0.00 0.00 0.00 0.00 0.00 0.00 0.00 0.00 0.00 0.00 0.00 0.00
0.00 0.00 0.00 0.00 0.00 0.00 0.00 0.00 0.00 0.00 0.00 0.00 0.00 0.00 0.00 0.00 0.00 0.00 0.00 0.00 0.00 0.00 0.00 0.00 0.00 0.00 0.00 0.00 0.00 0.00 0.00 0.00 0.00 0.00 0.00 0.00 0.00 0.00 0.00 0.00 0.00 0.00 0.00 0.00 0.00
0.00 0.00 0.00 0.00 0.00 0.00 0.00 0.00 0.00 0.00 0.00 0.00 0.00 0.00 0.00 0.00 0.00 0.00 0.00 0.00 0.00 0.00 0.00 0.00 0.00 0.00 0.00 0.00 0.00 0.00 0.00 0.00 0.00 0.00 0.00 0.00 0.00 0.00 0.00 0.00 0.00 0.00 0.00 0.00 0.00
0.00 0.00 0.00 0.00 0.00 0.00 0.00 0.00 0.00 0.00 0.00 0.00 0.00 0.00 0.00 0.00 0.00 0.00 0.00 0.00 0.00 0.00 0.00 0.00 0.00 0.00 0.00 0.00 0.00 0.00 0.00 0.00 0.00 0.00 0.00 0.00 0.00 0.00 0.00 0.00 0.00 0.00 0.00 0.00 0.00
0.00 0.00 0.01 0.01 0.00 0.00 0.00 0.00 0.00 0.00 0.00 0.00 0.00 0.00 0.00 0.00 0.00 0.00 0.00 0.00 0.00 0.00 0.00 0.00 0.00 0.00 0.00 0.00 0.00 0.00 0.00 0.00 0.00 0.00 0.00 0.00 0.00 0.00 0.00 0.00 0.00 0.00 0.00 0.00 0.00
0.00 0.00 0.01 0.01 0.00 0.00 0.00 0.00 0.00 0.00 0.00 0.00 0.00 0.00 0.00 0.00 0.00 0.00 0.00 0.00 0.00 0.00 0.00 0.00 0.00 0.00 0.00 0.00 0.00 0.00 0.00 0.00 0.00 0.00 0.00 0.00 0.00 0.00 0.00 0.00 0.00 0.00 0.00 0.00 0.00
0.00 0.00 0.00 0.00 0.00 0.00 0.00 0.00 0.00 0.00 0.00 0.00 0.00 0.00 0.00 0.00 0.00 0.00 0.00 0.00 0.00 0.00 0.00 0.00 0.00 0.00 0.00 0.00 0.00 0.00 0.00 0.00 0.00 0.00 0.00 0.00 0.00 0.00 0.00 0.00 0.00 0.00 0.00 0.00 0.00
0.00 0.00 0.00 0.00 0.00 0.00 0.01 0.00 0.00 0.00 0.00 0.00 0.00 0.00 0.00 0.00 0.00 0.00 0.00 0.00 0.00 0.00 0.00 0.00 0.00 0.00 0.00 0.00 0.00 0.00 0.00 0.00 0.00 0.00 0.00 0.00 0.00 0.00 0.00 0.00 0.00 0.00 0.00 0.00 0.00
0.02 0.00 0.00 0.00 0.00 0.03 0.08 0.02 0.00 0.00 0.00 0.00 0.00 0.00 0.00 0.00 0.00 0.00 0.00 0.00 0.00 0.00 0.00 0.00 0.00 0.00 0.00 0.00 0.00 0.00 0.00 0.00 0.00 0.00 0.00 0.00 0.00 0.00 0.00 0.00 0.00 0.00 0.00 0.00 0.00
0.01 0.01 0.00 0.01 0.04 0.07 0.15 0.03 0.00 0.00 0.00 0.00 0.00 0.00 0.00 0.00 0.00 0.00 0.00 0.00 0.00 0.00 0.00 0.00 0.00 0.00 0.00 0.00 0.00 0.00 0.00 0.00 0.00 0.00 0.00 0.00 0.00 0.00 0.00 0.00 0.00 0.00 0.00 0.00 0.00
0.01 0.02 0.01 0.03 0.07 0.10 0.09 0.02 0.00 0.00 0.00 0.00 0.00 0.00 0.00 0.00 0.00 0.00 0.00 0.00 0.00 0.00 0.00 0.00 0.00 0.00 0.00 0.00 0.00 0.00 0.00 0.00 0.00 0.00 0.00 0.00 0.00 0.00 0.00 0.00 0.00 0.00 0.00 0.00 0.00
0.02 0.01 0.01 0.08 0.25 0.16 0.03 0.00 0.00 0.00 0.00 0.00 0.00 0.00 0.00 0.00 0.00 0.00 0.00 0.00 0.00 0.00 0.00 0.00 0.00 0.00 0.00 0.00 0.00 0.00 0.00 0.00 0.00 0.00 0.00 0.00 0.00 0.00 0.00 0.00 0.00 0.00 0.00 0.00 0.00
0.07 0.05 0.01 0.02 0.03 0.08 0.07 0.03 0.01 0.00 0.00 0.00 0.00 0.00 0.00 0.00 0.00 0.00 0.00 0.00 0.00 0.00 0.00 0.00 0.00 0.00 0.00 0.00 0.00 0.00 0.00 0.00 0.00 0.00 0.00 0.00 0.00 0.00 0.00 0.00 0.00 0.00 0.00 0.00 0.00
0.12 0.06 0.02 0.11 0.07 0.02 0.02 0.03 0.00 0.00 0.00 0.00 0.00 0.00 0.00 0.00 0.00 0.00 0.00 0.00 0.00 0.00 0.00 0.00 0.00 0.00 0.00 0.00 0.00 0.00 0.00 0.00 0.00 0.00 0.00 0.00 0.00 0.00 0.00 0.00 0.00 0.00 0.00 0.00 0.00
0.12 0.06 0.04 0.04 0.06 0.16 0.14 0.08 0.01 0.00 0.00 0.00 0.00 0.00 0.00 0.00 0.00 0.00 0.00 0.00 0.00 0.00 0.00 0.00 0.00 0.00 0.00 0.00 0.00 0.00 0.00 0.00 0.00 0.00 0.00 0.00 0.00 0.00 0.00 0.00 0.00 0.00 0.00 0.00 0.00
0.05 0.02 0.05 0.06 0.05 0.15 0.14 0.07 0.01 0.01 0.01 0.00 0.00 0.00 0.00 0.00 0.00 0.00 0.00 0.00 0.00 0.00 0.00 0.00 0.00 0.00 0.00 0.00 0.00 0.00 0.00 0.00 0.00 0.00 0.00 0.00 0.00 0.00 0.00 0.00 0.00 0.00 0.00 0.00 0.00
MSLP
1023.23 1022.92 1022.42 1021.97 1021.60 1021.09 1020.45 1019.94 1019.50 1019.01 1018.48 1018.17 1017.64 1017.27 1016.89 1016.51 1015.93 1015.75 1014.47 1012.59 1012.62 1012.86 1012.80 1013.23 1013.18 1013.19 1013.19 1013.19 1013.37 1013.68 1013.71 1013.70 1013.64 1013.67 1013.12 1013.23 1013.21 1013.75 1014.09 1014.49 1015.21 1015.81 1016.35 1017.02 1018.41
1023.39 1023.07 1022.69 1022.34 1021.75 1021.23 1020.85 1020.10 1019.36 1018.84 1018.33 1017.92 1017.58 1017.08 1016.69 1016.48 1015.98 1014.35 1011.75 1011.75 1012.01 1012.39 1012.81 1012.97 1013.07 1013.08 1013.16 1013.23 1013.30 1013.35 1013.60 1013.16 1013.03 1012.94 1012.61 1012.83 1012.96 1013.23 1013.74 1014.14 1014.82 1015.82 1016.94 1017.61 1018.78
1023.29 1023.21 1022.88 1022.41 1021.93 1021.44 1020.80 1020.14 1019.50 1018.81 1018.19 1017.63 1017.28 1016.92 1016.51 1016.30 1015.49 1012.12 1011.18 1011.45 1011.96 1012.03 1012.25 1012.61 1012.81 1012.88 1013.01 1013.22 1013.37 1013.38 1012.89 1012.77 1012.53 1012.49 1012.50 1012.47 1012.77 1013.09 1013.19 1013.53 1013.49 1014.17 1016.44 1017.79 1018.77
1023.43 1023.12 1022.67 1022.20 1021.66 1021.14 1020.54 1020.06 1019.45 1018.70 1018.00 1017.40 1017.03 1016.76 1016.46 1016.11 1014.09 1011.10 1010.91 1010.98 1011.62 1011.95 1012.21 1012.59 1012.77 1012.78 1012.82 1012.89 1013.05 1013.07 1012.41 1012.49 1012.11 1012.25 1012.37 1012.32 1012.40 1012.64 1012.80 1011.94 1012.84 1013.84 1015.59 1017.40 1018.53
1023.43 1023.12 1022.44 1021.87 1021.37 1020.72 1020.06 1019.37 1018.83 1018.37 1017.77 1017.15 1016.79 1016.61 1016.30 1015.34 1012.73 1010.90 1010.86 1010.91 1011.61 1011.88 1011.99 1012.39 1012.55 1012.53 1012.40 1012.47 1012.76 1012.69 1012.09 1012.06 1011.88 1011.97 1012.07 1012.18 1012.09 1012.30 1012.20 1012.85 1013.50 1014.51 1016.02 1016.98 1018.25
1023.67 1023.09 1022.51 1021.94 1021.29 1020.53 1019.62 1018.86 1018.32 1017.72 1017.05 1016.59 1016.52 1016.54 1016.00 1014.20 1011.08 1011.03 1011.04 1011.27 1011.16 1011.54 1011.89 1012.06 1012.03 1012.08 1012.07 1012.15 1012.29 1012.06 1012.05 1011.85 1011.73 1011.73 1011.85 1012.01 1012.28 1012.63 1012.29 1013.19 1014.19 1015.18 1016.14 1017.03 1017.93
1023.49 1023.04 1022.57 1022.02 1021.30 1020.38 1019.39 1018.43 1017.69 1016.98 1016.41 1015.99 1016.27 1016.31 1015.22 1012.10 1011.01 1011.15 1011.03 1011.29 1011.28 1011.20 1011.43 1011.64 1011.74 1011.98 1011.88 1011.89 1011.98 1012.02 1012.05 1011.84 1011.73 1011.80 1011.79 1011.93 1012.07 1012.05 1012.68 1013.53 1014.49 1015.43 1016.44 1017.17 1017.84
1023.24 1022.92 1022.57 1022.00 1021.12 1020.11 1018.98 1017.67 1017.14 1016.44 1016.05 1015.76 1016.01 1016.13 1013.90 1011.03 1011.09 1011.13 1010.93 1011.13 1011.19 1011.17 1011.10 1011.37 1011.65 1011.80 1011.86 1011.81 1012.01 1011.91 1012.03 1011.62 1011.65 1011.71 1011.92 1011.92 1011.46 1011.69 1012.75 1013.49 1014.45 1015.51 1016.30 1017.09 1017.67
1023.43 1022.87 1022.41 1021.85 1020.98 1019.99 1018.56 1017.11 1016.61 1016.06 1015.93 1016.01 1015.89 1015.50 1012.87 1010.75 1010.72 1010.17 1010.25 1010.53 1010.97 1011.14 1011.23 1011.41 1011.64 1011.85 1012.03 1011.77 1012.13 1012.19 1011.71 1011.76 1011.53 1011.63 1011.66 1011.84 1011.45 1011.93 1012.93 1013.58 1014.30 1015.13 1015.86 1016.69 1017.31
1023.49 1022.92 1022.43 1021.65 1020.74 1019.70 1018.18 1016.59 1016.27 1016.17 1016.15 1015.97 1015.43 1015.19 1012.18 1011.03 1010.43 1010.11 1010.11 1010.20 1010.49 1011.17 1011.42 1011.54 1011.89 1011.95 1012.04 1011.80 1011.46 1011.80 1011.85 1011.82 1011.51 1011.53 1011.68 1011.67 1011.39 1011.68 1012.56 1013.40 1013.99 1014.80 1015.44 1016.17 1016.82
1023.81 1023.23 1022.49 1021.76 1020.88 1019.82 1018.41 1016.84 1017.25 1016.93 1016.61 1016.31 1015.32 1013.97 1012.23 1011.12 1010.44 1009.95 1009.90 1010.08 1010.31 1010.91 1011.25 1011.56 1011.74 1011.36 1011.45 1011.63 1011.65 1011.72 1011.73 1011.54 1011.37 1011.49 1011.62 1011.32 1011.28 1011.40 1012.18 1013.09 1013.49 1014.38 1015.03 1015.78 1016.48
1023.95 1023.35 1022.71 1022.07 1021.19 1020.46 1019.53 1020.48 1022.43 1022.53 1019.31 1015.69 1014.42 1013.62 1012.13 1011.69 1011.32 1009.95 1009.89 1010.06 1010.18 1010.69 1011.22 1011.77 1010.99 1011.19 1011.29 1011.52 1011.62 1011.67 1011.63 1011.57 1011.47 1011.50 1011.79 1011.33 1011.11 1011.47 1012.03 1012.40 1012.83 1013.55 1014.33 1015.19 1016.20
1024.15 1023.60 1023.05 1022.20 1021.32 1021.24 1021.90 1022.21 1022.51 1022.37 1020.61 1015.04 1012.97 1011.86 1010.68 1010.89 1010.29 1009.32 1009.62 1009.54 1009.83 1010.52 1010.73 1010.76 1010.48 1010.98 1011.11 1011.39 1011.52 1011.51 1011.49 1011.51 1011.56 1011.66 1011.63 1011.31 1011.09 1011.27 1011.55 1012.03 1012.45 1012.73 1013.36 1014.30 1015.13
1024.15 1023.71 1023.23 1022.44 1021.91 1022.39 1021.79 1021.89 1021.94 1022.03 1019.80 1014.42 1011.91 1009.68 1009.39 1009.35 1009.09 1008.39 1008.39 1008.87 1009.62 1009.71 1010.54 1010.67 1010.47 1010.39 1010.67 1010.66 1010.92 1011.13 1011.19 1011.45 1011.61 1011.77 1011.30 1011.43 1010.81 1011.01 1011.15 1011.25 1011.33 1011.19 1012.04 1013.30 1014.26
1024.24 1023.72 1023.45 1023.03 1023.22 1022.91 1022.40 1021.55 1021.19 1021.33 1018.43 1012.42 1010.31 1008.76 1008.64 1008.63 1007.65 1007.58 1007.61 1008.31 1008.62 1009.20 1009.95 1009.67 1009.93 1010.16 1010.00 1009.60 1010.26 1010.43 1010.93 1011.33 1011.53 1011.76 1011.69 1011.37 1011.19 1010.54 1010.97 1010.41 1009.90 1009.77 1010.54 1012.09 1013.19
1024.19 1023.81 1023.51 1023.39 1023.38 1022.82 1022.32 1021.43 1020.92 1020.38 1016.41 1011.58 1009.43 1008.89 1009.07 1008.52 1007.86 1007.73 1007.66 1007.64 1008.13 1008.84 1009.29 1009.25 1009.52 1009.31 1008.89 1009.49 1009.84 1010.23 1011.09 1011.77 1012.14 1012.03 1011.63 1010.85 1010.71 1009.90 1009.79 1009.42 1009.28 1009.19 1009.39 1010.75 1012.08
1023.88 1023.76 1023.54 1023.37 1023.01 1022.73 1022.43 1021.75 1020.91 1018.50 1013.87 1011.02 1009.31 1008.74 1008.77 1008.46 1008.01 1007.56 1007.51 1007.46 1007.54 1008.52 1008.61 1009.29 1009.27 1008.88 1008.85 1009.40 1009.97 1010.13 1010.93 1011.69 1012.19 1012.05 1011.05 1010.92 1010.67 1009.33 1008.78 1008.91 1008.93 1008.82 1008.99 1010.00 1011.15
1023.38 1023.39 1023.09 1023.02 1022.88 1022.85 1022.83 1022.22 1019.74 1015.47 1012.94 1010.42 1009.46 1008.78 1008.53 1008.03 1007.60 1007.45 1007.33 1007.27 1007.19 1006.97 1007.65 1008.31 1008.85 1008.30 1008.19 1008.23 1008.86 1009.64 1010.18 1010.67 1010.94 1011.27 1011.29 1011.27 1009.98 1008.82 1008.41 1008.48 1008.51 1008.69 1008.98 1009.59 1010.39
1023.55 1023.18 1022.84 1022.33 1022.60 1022.89 1023.11 1021.65 1017.39 1014.27 1011.94 1010.78 1009.85 1009.46 1008.35 1007.72 1007.59 1007.19 1006.81 1006.29 1006.09 1006.14 1006.63 1007.42 1007.56 1007.80 1007.58 1007.70 1008.14 1009.38 1009.80 1010.15 1010.91 1011.84 1011.29 1010.41 1009.70 1008.71 1008.34 1008.12 1008.15 1008.25 1008.74 1009.10 1009.68
1023.67 1023.15 1022.45 1021.64 1022.06 1022.92 1022.40 1019.49 1016.68 1013.31 1011.74 1010.64 1009.58 1008.74 1008.09 1007.37 1007.33 1007.14 1006.42 1005.04 1005.45 1005.71 1005.58 1006.79 1007.58 1007.38 1007.38 1007.70 1008.11 1008.07 1009.23 1010.23 1010.77 1011.01 1010.75 1010.06 1009.33 1008.19 1007.93 1007.73 1007.81 1007.98 1008.30 1008.70 1009.32
1023.66 1022.92 1021.19 1020.86 1021.99 1022.22 1020.15 1017.91 1015.83 1013.37 1013.05 1012.05 1010.42 1009.02 1007.83 1007.51 1006.77 1006.44 1005.47 1004.89 1004.39 1005.41 1005.74 1006.46 1006.91 1007.74 1007.52 1006.77 1006.83 1008.20 1008.57 1009.34 1009.67 1010.09 1009.59 1009.39 1008.36 1007.65 1007.21 1007.19 1007.50 1007.71 1008.01 1008.56 1009.14
1023.40 1022.86 1021.37 1021.48 1022.04 1020.87 1019.19 1017.69 1016.17 1014.06 1013.53 1012.84 1011.55 1009.75 1008.67 1007.64 1006.60 1006.05 1004.97 1004.12 1003.93 1004.23 1005.17 1005.54 1006.35 1007.14 1006.81 1006.73 1006.51 1006.39 1007.19 1008.05 1008.70 1009.89 1009.74 1008.82 1007.61 1007.03 1006.99 1007.24 1007.61 1007.86 1008.44 1008.85 1009.15
1022.67 1021.95 1021.40 1021.40 1021.05 1019.23 1018.39 1017.11 1016.27 1014.70 1013.59 1012.81 1011.54 1010.27 1008.97 1007.93 1007.17 1005.63 1004.63 1003.92 1003.83 1003.89 1003.85 1004.94 1005.33 1006.44 1006.99 1007.07 1006.88 1006.45 1006.97 1007.01 1007.93 1008.52 1008.25 1008.15 1007.19 1007.14 1007.30 1007.71 1007.96 1008.35 1008.67 1008.92 1009.06
1022.20 1021.42 1020.99 1020.60 1019.57 1019.03 1018.15 1016.61 1015.31 1014.27 1013.57 1013.14 1011.72 1010.78 1009.73 1008.28 1007.02 1005.73 1004.62 1004.02 1003.89 1003.80 1003.68 1003.85 1004.38 1004.59 1004.43 1004.04 1005.65 1006.16 1006.41 1006.80 1006.95 1007.56 1007.15 1006.63 1007.03 1007.25 1007.42 1007.88 1008.35 1008.75 1009.17 1009.41 1009.46
1020.77 1020.16 1019.71 1019.05 1018.14 1017.97 1017.80 1016.55 1014.95 1014.09 1013.14 1012.38 1011.59 1010.85 1010.09 1008.70 1006.88 1005.93 1004.95 1004.39 1004.35 1004.17 1004.08 1003.89 1004.19 1004.53 1004.38 1004.65 1004.75 1004.97 1005.51 1006.10 1006.19 1005.92 1006.16 1006.21 1006.71 1006.62 1006.91 1007.84 1008.72 1009.48 1009.88 1009.95 1009.95
1019.56 1019.63 1019.20 1018.02 1017.63 1017.55 1015.73 1015.30 1014.37 1013.19 1012.68 1011.32 1010.73 1009.72 1009.20 1008.74 1007.00 1006.32 1005.79 1005.04 1004.71 1004.79 1004.44 1004.47 1004.35 1004.58 1004.83 1004.90 1004.84 1004.79 1004.80 1004.97 1005.25 1005.60 1005.75 1006.23 1006.39 1006.98 1007.74 1008.62 1009.49 1010.01 1010.34 1010.35 1010.47
1018.62 1018.66 1018.90 1017.17 1016.76 1016.08 1014.79 1013.99 1013.00 1012.64 1011.81 1010.79 1009.69 1009.21 1008.49 1007.42 1007.43 1007.22 1006.79 1005.99 1005.85 1005.51 1004.75 1004.74 1004.71 1004.99 1004.93 1004.95 1005.33 1005.18 1003.35 1004.11 1004.68 1005.10 1005.14 1005.73 1006.03 1007.18 1008.31 1009.03 1009.83 1010.37 1010.85 1011.10 1011.02
Thickness
5636 5639 5645 5649 5654 5660 5667 5673 5678 5685 5690 5695 5701 5706 5710 5715 5721 5725 5730 5746 5751 5753 5755 5752 5752 5750 5752 5747 5747 5742 5725 5716 5721 5717 5733 5741 5736 5735 5737 5729 5726 5725 5718 5715 5704
5630 5634 5637 5642 5648 5654 5659 5667 5676 5682 5688 5693 5698 5704 5710 5713 5718 5726 5750 5755 5754 5754 5748 5744 5740 5744 5739 5738 5739 5733 5719 5725 5736 5738 5741 5742 5740 5737 5734 5728 5725 5718 5712 5710 5699
5627 5628 5631 5635 5640 5646 5654 5662 5669 5677 5685 5691 5697 5702 5707 5711 5717 5740 5755 5755 5753 5753 5751 5748 5743 5740 5732 5734 5730 5727 5727 5733 5740 5744 5747 5745 5738 5740 5736 5725 5737 5731 5710 5704 5695
5622 5624 5628 5633 5638 5643 5649 5656 5663 5672 5681 5688 5693 5698 5703 5708 5707 5748 5754 5755 5751 5749 5746 5739 5736 5729 5725 5724 5730 5723 5737 5737 5744 5743 5741 5739 5744 5738 5737 5751 5748 5741 5723 5706 5694
5618 5621 5627 5631 5636 5641 5648 5655 5661 5667 5676 5684 5689 5693 5699 5704 5718 5747 5750 5751 5746 5745 5739 5732 5727 5725 5721 5725 5726 5724 5735 5738 5743 5741 5741 5742 5741 5740 5738 5740 5737 5728 5716 5706 5695
5610 5615 5621 5626 5631 5638 5646 5653 5659 5666 5674 5681 5684 5687 5695 5692 5736 5740 5742 5743 5744 5740 5733 5734 5730 5731 5725 5724 5725 5731 5732 5736 5739 5739 5739 5734 5733 5733 5740 5734 5725 5718 5711 5704 5695
5605 5609 5614 5618 5625 5633 5642 5650 5658 5666 5673 5678 5679 5681 5688 5703 5730 5732 5735 5735 5738 5738 5730 5732 5732 5723 5727 5720 5729 5726 5721 5728 5731 5732 5731 5734 5726 5730 5733 5727 5718 5713 5706 5700 5694
5600 5603 5606 5612 5620 5629 5639 5651 5657 5663 5668 5673 5674 5675 5686 5719 5722 5724 5728 5728 5733 5735 5733 5732 5730 5722 5720 5724 5718 5715 5716 5713 5725 5726 5725 5728 5718 5734 5727 5723 5716 5709 5704 5697 5692
5591 5596 5600 5605 5614 5623 5634 5647 5653 5660 5662 5664 5668 5672 5683 5716 5712 5723 5727 5721 5722 5724 5725 5726 5722 5713 5713 5707 5700 5700 5699 5701 5712 5721 5721 5719 5717 5727 5720 5718 5716 5709 5705 5698 5692
5584 5589 5593 5599 5607 5617 5631 5644 5647 5650 5652 5655 5663 5663 5690 5696 5708 5716 5720 5719 5714 5710 5707 5707 5701 5699 5696 5699 5686 5689 5691 5694 5703 5714 5712 5710 5717 5725 5721 5714 5714 5708 5705 5698 5692
5571 5576 5583 5589 5597 5606 5621 5634 5632 5640 5641 5646 5654 5662 5679 5694 5704 5706 5712 5709 5706 5699 5687 5694 5686 5685 5697 5700 5702 5696 5692 5694 5707 5710 5704 5708 5713 5723 5722 5712 5711 5706 5703 5697 5691
5558 5564 5571 5576 5584 5591 5601 5596 5577 5579 5606 5641 5651 5659 5674 5681 5676 5694 5704 5693 5692 5681 5684 5677 5679 5696 5699 5697 5694 5692 5688 5690 5701 5702 5697 5702 5708 5712 5712 5714 5715 5709 5703 5698 5690
5544 5550 5557 5565 5571 5575 5570 5571 5568 5570 5587 5642 5654 5664 5676 5677 5677 5687 5693 5689 5685 5675 5678 5676 5690 5691 5691 5685 5683 5684 5684 5686 5690 5691 5695 5698 5700 5704 5711 5709 5709 5710 5710 5703 5697
5532 5537 5543 5552 5558 5553 5562 5559 5560 5560 5584 5630 5647 5668 5679 5679 5675 5695 5699 5689 5678 5677 5672 5675 5686 5685 5682 5683 5687 5672 5690 5689 5685 5680 5678 5689 5681 5695 5703 5707 5711 5719 5715 5707 5700
5518 5524 5529 5535 5536 5540 5543 5549 5552 5555 5559 5636 5651 5674 5675 5676 5688 5689 5698 5685 5675 5673 5673 5675 5673 5674 5677 5691 5690 5686 5690 5686 5683 5674 5675 5678 5677 5698 5688 5703 5718 5726 5722 5712 5705
5504 5509 5514 5519 5522 5526 5530 5536 5542 5544 5554 5621 5648 5650 5652 5664 5672 5679 5680 5687 5683 5671 5669 5675 5680 5684 5691 5688 5690 5688 5680 5668 5663 5665 5654 5681 5679 5690 5696 5706 5714 5722 5728 5720 5709
5490 5494 5499 5502 5511 5512 5513 5517 5525 5525 5600 5620 5636 5640 5640 5647 5655 5662 5666 5664 5662 5648 5653 5656 5664 5679 5682 5674 5674 5677 5666 5643 5639 5642 5656 5669 5663 5690 5709 5710 5713 5721 5727 5722 5715
5477 5479 5483 5486 5487 5490 5490 5494 5505 5565 5587 5619 5619 5626 5625 5637 5648 5650 5653 5653 5658 5666 5660 5651 5642 5667 5679 5680 5674 5667 5670 5649 5640 5645 5660 5654 5663 5688 5707 5712 5714 5716 5720 5721 5716
5455 5462 5469 5468 5463 5461 5459 5448 5517 5565 5589 5594 5607 5593 5613 5627 5636 5640 5643 5657 5667 5669 5658 5649 5654 5667 5676 5682 5685 5657 5654 5672 5645 5633 5646 5661 5672 5692 5701 5707 5712 5715 5714 5717 5718
5437 5442 5452 5447 5439 5426 5422 5453 5494 5558 5574 5580 5576 5595 5599 5615 5617 5624 5631 5663 5661 5666 5675 5653 5642 5662 5672 5674 5670 5672 5671 5651 5637 5627 5635 5651 5655 5680 5692 5702 5708 5710 5712 5715 5713
5411 5416 5437 5426 5405 5395 5409 5435 5490 5537 5536 5539 5553 5568 5590 5600 5610 5615 5636 5655 5667 5655 5661 5651 5648 5642 5655 5659 5665 5654 5653 5648 5656 5647 5654 5650 5662 5692 5703 5707 5705 5710 5710 5711 5709
5383 5385 5396 5381 5367 5372 5384 5415 5456 5495 5503 5508 5521 5546 5567 5586 5600 5606 5627 5650 5659 5661 5651 5658 5642 5628 5649 5660 5670 5679 5667 5666 5651 5636 5636 5652 5669 5697 5701 5701 5701 5705 5701 5702 5704
5359 5363 5358 5348 5341 5363 5377 5396 5414 5445 5474 5487 5504 5529 5555 5566 5575 5597 5617 5641 5644 5652 5656 5646 5635 5622 5633 5642 5646 5652 5655 5667 5654 5648 5647 5650 5666 5687 5690 5687 5691 5694 5696 5699 5700
5332 5336 5341 5338 5351 5354 5363 5382 5400 5428 5439 5457 5485 5505 5524 5545 5570 5587 5608 5626 5632 5642 5644 5652 5632 5645 5642 5663 5652 5642 5645 5650 5665 5643 5659 5660 5672 5680 5685 5683 5683 5683 5684 5687 5689
5322 5332 5338 5345 5354 5352 5357 5374 5390 5402 5428 5449 5460 5480 5502 5527 5556 5571 5596 5609 5618 5621 5630 5639 5634 5636 5654 5652 5656 5664 5660 5648 5653 5667 5656 5672 5663 5684 5691 5682 5678 5672 5671 5675 5678
5321 5325 5330 5344 5353 5350 5364 5375 5389 5409 5420 5441 5450 5485 5499 5505 5544 5560 5570 5588 5600 5607 5615 5617 5627 5628 5623 5640 5645 5646 5653 5653 5655 5655 5660 5658 5661 5670 5667 5665 5663 5661 5663 5664 5665
5320 5322 5318 5344 5348 5354 5373 5388 5404 5411 5420 5439 5459 5471 5482 5507 5527 5537 5549 5565 5574 5587 5601 5610 5610 5614 5623 5626 5624 5614 5646 5648 5650 5651 5664 5648 5670 5659 5653 5655 5654 5652 5650 5651 5653